Location: *
(38.3914°N, 75.0697°W)
Time: 05:31:06
(UTC+00:00)

USA 267 - Pass Details

Date: 17 February 2020
Orbit: 1101 x 1107 km, 123.0° (Epoch: 26 March)

Event Time Altitude Azimuth Distance (km) Brightness Sun altitude
Rises 09:06:36 0° 148° (SSE) 3,903 6.4 -32.4°
Reaches altitude 10° 09:09:08 10° 152° (SSE) 2,948 5.7 -31.9°
Enters shadow 09:13:18 39° 175° (S) 1,592 4.0 -31.1°
